Location: Barcelona
(41.3830°N, 2.1830°E)
Time: 19:20:23
(UTC+01:00)

BEESAT 2 - Visible Passes

Search period start: 22 March 2019 00:00
Search period end: 01 April 2019 01:00
Orbit: 508 x 524 km, 64.9° (Epoch: 21 March)

Date Brightness Start Highest point End Pass type
(mag) Time Alt. Az. Time Alt. Az. Time Alt. Az.
22 Mar ? 19:44:15 10° N 19:47:11 19° NE 19:49:40 12° E visible
22 Mar ? 21:21:16 10° NW 21:24:41 42° WSW 21:24:41 42° WSW visible
23 Mar ? 19:28:29 10° N 19:31:27 20° NE 19:34:23 10° E visible
23 Mar ? 21:05:31 10° NW 21:09:16 42° WSW 21:09:59 37° SSW visible
24 Mar ? 20:49:47 10° NW 20:53:31 41° WSW 20:55:24 24° S visible
25 Mar ? 20:34:02 10° NW 20:37:45 40° WSW 20:40:56 13° S visible
26 Mar ? 20:18:18 10° NW 20:22:00 39° WSW 20:25:40 10° S visible
27 Mar ? 20:02:33 10° NW 20:06:14 38° WSW 20:09:54 10° S visible
28 Mar ? 19:46:48 10° NW 19:50:29 37° WSW 19:54:07 10° S visible
